DELTA 1 DEB, 42646

Orbit data source: Space-Track

DELTA 1 DEB, 42646 is space debris in SSO originally from a launch on Thu, 12 Jun 1975 UTC launched from the Air Force Western Test Range (AFWTR). Debris objects in space refer to the collection of defunct objects orbiting the Earth. Examples of debris include non-operational satellites, rocket bodies, and fragments generated from explosions, collisions, or faulty payload assembly.

Loading next visibility...
Identifier
42646, 1975-052MF
Orbit
SSO
Country
Flag of USUS
Related business
Manufacturer
Unknown
Mission
Spacecraft
Bus & Motor
Unknown
Mass
Unknown
Launch date (UTC)
1975-06-12 (50 years ago)
Launch vehicle
Unknown
Launch site
Air Force Western Test Range (AFWTR)
Object type
Payload
Rocket body
Debris
Shape & HBR
Unknown shape, 0.1 m
Radar Cross Section
Small (<0.1 m²)

Expand to show TLE details & history
Last TLE update: 2 days ago

TLE from 2 days ago
0 DELTA 1 DEB
1 42646U 75052MF  25286.02002583  .00000185  00000-0  44274-3 0  9992
2 42646 100.0043 202.7553 0055288  87.5031 273.2423 13.36028882534060
Epoch: 2025-10-13T00:28Z
TLE epoch observation values (Epoch: 2025-10-13T00:28:50.231Z)
Latitude
0.00003°
Longitude
173.71719°
Altitude
1,124.747 km
Speed
7.291 km/s
True Right ascension
13h 31m 01s
True Declination
0° 00' 00"
Sunlit
Object was in daylight at epoch
Visualization orbit readout
Latitude
Unknown
Longitude
Unknown
Altitude
Unknown
Speed
Unknown
Apparent Right ascension
Unknown
Apparent Declination
Unknown
Sunlit
N/A
Visualization observer readout
Local Sidereal Time
04:37:33
Azimuth
Unknown
Elevation
Unknown
Doppler factor
Unknown
Orbital elements
Apogee altitude
1,162.908 km
Perigee altitude
1,079.981 km
Semi-major axis
7,499.581 km
Eccentricity
0.00553
Inclination
100.0043°
RAAN
202.7553°
Arg. of periapsis
87.5031°
True anomaly
272.60953°
Mean anomaly
273.2423°
Eccentric anomaly
272.92594°
Mean motion
3.34186 °/min
Orbital period
107.72 mins
BSTAR
0.00044274
Loading maneuver chart data...
Computing Atmospheric mass density...
Loading historical data...
Loading historical data...
Loading historical data...
Loading historical data...
Loading historical data...
Loading historical data...
Loading historical data...

Documentation

Showing up to 5 results
|